Погода в Ветлуге

Погода в Ветлуге : погода сейчас, прогноз погоды и архив. Всё, что Вы хотите узнать о погоде в Ветлуге!

Хотите узнать прогноз погоды в Ветлуге? Тогда Вам сюда: Погода в Ветлуге

Поиск расширенной информации на нашем сайте:

Другие новости

Новости СМИ2

Главная страница сайта

Новости сайта

03.07.2017

Напоминаем, что на нашем специализированном сайте Метеоцентр.Азия вы можете получить высокодетализированные автоматические прогнозы погоды по пунктам России, СНГ и мира в авиационном формате (включающие направление и скорость ветра, видимость, явления погоды, количество и форму облачности, нижнюю и верхнюю границу облачности).


Погода в Ветлуге - сегодня

Время (UTC), дата Ветер
(°,м/с) 
Видим.   Явления Облачность Т
(°С)
Тd
(°С)
f(%) Тe
(°С)
Pmin
(гПа)
dP
(гПа)
Po
(мм)
O2
(г/м3)
Тmin Tmax R s Состояние
почвы
18 12.12.17 120 (ЮВ) 3-6{07}  20000 м    10/6 600 м средняя 
[Sc|Ac As]
-1.8 -3.9 86 -4  1022.1  -0.7  754  306           
21 12.12.17 130 (ЮВ) 2-4{07}  20000 м    10/6 600 м средняя 
[Sc|Ac As]
-2.3 -3.5 91 -3  1021.6  -0.5  753  306           
00 13.12.17 120 (ЮВ) 3-6{08}  20000 м    10/8 600 м средняя 
[Sc|Ac As]
-2.3 -3.2 94 -4  1020.1  -1.5  752  306           
03 13.12.17 130 (ЮВ) 2-5{06}  20000 м    10/8 600 м средняя 
[Sc|Ac As]
-2.1 -3 94 -3  1018.5  -1.5  751  305  -2.4      10  равномерный
сухой снег
100% 
06 13.12.17 150 (ЮВ) 3-7{08}  4000 м  снег  10/10 600 м 
[Sc]
-1.1 -1.8 95 -3  1016.6  -1.8  750  303           
09 13.12.17 160 (Ю) 4-9{09}  4000 м  снег  10/10 600 м 
[Sc]
-0.6 -1 97 -3  1014.9  -1.7  748  302           
12 13.12.17 170 (Ю) 3-7{11}  20000 м  {снег}  10/6 600 м средняя 
[Sc|Ac As]
-0.3 -0.9 96 -2  1013.7  -1.1  748  302           
15 13.12.17 160 (Ю) 3-7{11}  10 км  слаб. дождь{снег}  10/8 600 м средняя 
[Sc|Ac As]
+0 -0.3 98 -2  1012.5  -1.2  747  301    +0     
18 13.12.17 170 (Ю) 3-5{07}  4000 м  снег{дождь}  10/10 300 м 
[Frnb|Ns]
+0.2 -0.1 98 -2  1012.7  0.2  747  301           
21 13.12.17 180 (Ю) 2-3{06}  4000 м  слаб. снег  10/10 300 м 
[Frnb|Ns]
+0.2 -0.1 98 -1  1013.3  0.6  747  301           
00 14.12.17 190 (Ю) 2-3{04}  4000 м  слаб. снег  10/10 300 м 
[Frnb|Ns]
+0.1 +0.1 100 -1  1015.4  749  302           
03 14.12.17 170 (Ю) 1-2{04}  4000 м  слаб. снег  10/10 300 м 
[Frnb|Ns]
+0.1 +0.1 100 +1  1015.9  0.5  749  302  +0    17  равномерный
мокрый или
старый снег
100% 
06 14.12.17 тихо () -0{02}  4000 м  слаб. снег  10/10 300 м 
[Frnb|Ns]
+0.1 +0.1 100 1016.5  0.6  750  302  +0.1         
09 14.12.17 тихо () -0{00}  2000 м  сильн. снег  10/10 300 м 
[Frnb|Ns]
+0.2 +0.2 100 1015.8  -0.7  749  302           
12 14.12.17 120 (ЮВ) 2-3{04}  1000 м  снег  10/10 300 м 
[Frnb|Ns]
+0.1 +0.1 100 -1  1014.6  -1.2  748  301           
15 14.12.17 160 (Ю) 1-3{04}  2000 м  снег  10/10 300 м 
[Frnb|Ns]
+0.4 +0.4 100 +1  1013.8  -0.6  748  301    +0.4     
18 14.12.17 170 (Ю) 3-6{07}  20000 м  слаб. дождь{снег}  10/10 300 м 
[Frnb|Ns]
+1.6 +1.3 98 1013.5  -0.3  747  299           
21 14.12.17 170 (Ю) 3-7{09}  10 км  слаб. дождь  10/10 300 м 
[Frnb|Ns]
+1.3 +0.8 96 1013.9  0.4  748  300           
00 15.12.17 170 (Ю) 3-5{08}  4000 м  слаб. дождь  10/10 300 м 
[Frnb|Ns]
+0.6 +0.3 98 -1  1013.9  748  301           
03 15.12.17 160 (Ю) 4-8{08}  4000 м  снег  10/10 300 м 
[Frnb|Ns]
+0.2 -0.1 98 -2  1014  748  301  +0.1    14  равномерный
мокрый или
старый снег
100% 
06 15.12.17 160 (Ю) 3-7{09}  10 км  слаб. снег [диам. гололёда 1 мм]  10/10 300 м 
[Frnb|Ns]
-1 -1.4 97 -3  1015.2  1.1  749  303  -1.1         
09 15.12.17 160 (Ю) 4-8{09}  20000 м  {снег} [диам. гололёда 2 мм]  10/10 300 м 
[Frnb|Ns]
-2 -2.9 94 -5  1016.5  1.2  749  305           
12 15.12.17 160 (Ю) 4-8{09}  20000 м  {снег} [диам. гололёда 1 мм]  10/10 300 м 
[Frnb|Ns]
-2.1 -3 94 -5  1017.7  1.2  750  305           
15 15.12.17 160 (Ю) 4-8{09}  20000 м    10/6 300 м кучево-дожд., средняя 
[Cb calv|Ac As]
-2.3 -3.5 91 -5  1019  1.3  751  306    +0.2     
18 15.12.17 170 (Ю) 3-7{09}  20000 м    10/6 600 м средняя 
[Sc|Ac As]
-2.5 -3.8 91 -5  1020.6  1.5  752  306           
Время (UTC), дата Ветер
(°,м/с) 
Видим.   Явления Облачность Т
(°С)
Тd
(°С)
f(%) Тe
(°С)
Pmin
(гПа)
dP
(гПа)
Po
(мм)
O2
(г/м3)
Тmin Tmax R s Состояние
почвы

Для получения пояснительной информации подведите курсор к названию столбца.

ПОГОДА в Ветлуге - архив

Всё, что Вы хотите узнать о погоде в Ветлуге - удобно и подробно!

Выберите нужную дату (начиная с 1 января 2015* года) и нажмите кнопку "Найти".
Будут отображены архивные сводки погоды по пункту Ветлуга, начиная с указанной даты.


Отображать данные в формате CSV (для использования в таблицах Excel)


Внимание! Наш архив погоды предназначен исключительно для личного некоммерческого использования в познавательных целях. Если Вам необходимы официальные справки о состоянии погоды (для производственных, юридических, коммерческих и т.п. целей), обращайтесь в органы Росгидромета.

*Примечание: данная дата относится к архиву по метеостанциям СССР (Россия, СНГ, Балтия).
Архив по метеостанциям Зарубежной Европы и Азии (кроме Китая) хранится 10 дней, по другим регионам земного шара (Китай, Африка, Америка, Австралия, Океания) - 1 день.

Ветлуга - район местоположения метеостанции


Название, широта, долгота, высота метеостанции:
Ветлуга 57.9°ш. 45.8°д. 136 м над ур. моря [Российская Федерация]

Дополнительная информация

В oтличие oт бoльшинства пoгoдных сайтoв мы публикуем пoдрoбную метеoинфoрмацию в детальнoм прoфессиoнальнoм фoрмате.

Характеристики температуры и влажнoсти вoздуха измеряются на высoте 2 м в тени вдали oт зданий и деревьев.
Скoрoсть ветра измеряется на высoте 10 м (на урoвне рoста челoвека скoрoсть ветра ниже в 1.5-2 раза). Если метеoстанция нахoдится в гoрoде или в лесу, тo скoрoсть ветра занижена на 2-4 м/с пo сравнению с oткрытым местoм. Скoрoсть ветра над акватoриями крупных рек и oзёр, а также на вершинах хoлмoв на 2-5 м/с выше, чем в oбычных услoвиях.
Атмoсфернoе давление в разных тoчках местнoсти мoжет значительнo oтличаться oт давления на метеoстанции, в зависимoсти oт услoвий рельефа (при пoдъёме на 10 м давление пoнижается примернo на 1 мм рт.ст.).